Location: Kergonan
(48.2337°N, 4.5518°W)
Time: 20:46:39
(UTC+00:00)

Okean-O - Pass Details

Date: 18 January 2020
Orbit: 639 x 640 km, 98.2° (Epoch: 16 February)

Event Time Altitude Azimuth Distance (km) Brightness Sun altitude
Rises 06:54:18 0° 18° (NNE) 2,958 6.0 -11.1°
Reaches altitude 10° 06:56:34 10° 23° (NNE) 2,043 5.3 -10.7°
Maximum altitude 07:00:55 53° 100° (E) 794 3.6 -10.1°
Drops below altitude 10° 07:05:14 10° 178° (S) 2,026 5.5 -9.4°
Sets 07:07:28 0° 183° (S) 2,930 6.3 -9.0°
